CAPE
3 3 1 nan nan 0 nan nan nan nan nan nan nan nan nan nan nan nan nan nan nan nan nan nan nan nan nan nan nan nan nan nan nan nan nan 1 4 4 6 5 5 5 4 6 6 7 10 14 14 16 18 17 15 15 15 16 16 19 23 28 28 36 42 46 46 50 57 62 62 62 66 62 60 60 54 55 58 58 61 62 62 64 69 72 72 74
3 3 0 nan nan nan 0 nan nan nan nan nan nan nan nan nan nan nan nan nan nan nan nan nan nan nan nan nan nan nan nan nan nan nan 0 2 2 2 3 3 3 4 5 8 8 9 10 13 13 14 14 15 14 14 14 16 16 18 21 27 27 31 37 41 41 44 49 54 54 54 55 52 47 47 43 46 51 51 56 63 63 67 67 67 67 73
2 2 0 nan nan nan nan nan nan nan nan nan nan nan nan nan nan nan nan nan nan nan nan nan nan nan nan nan nan nan nan nan nan nan 0 0 1 1 1 2 2 4 6 9 9 10 10 11 11 12 13 13 14 14 15 16 16 20 23 27 27 29 35 36 36 38 40 42 44 44 44 42 40 40 39 42 50 50 54 56 56 60 58 59 59 63
0 1 1 nan nan nan nan nan nan nan nan nan nan nan nan nan nan nan nan nan nan nan nan nan nan nan nan nan nan nan nan nan nan nan nan 0 0 0 1 2 2 4 7 9 9 10 10 11 11 12 13 15 16 16 18 20 20 23 25 27 27 29 31 32 32 33 35 36 36 36 36 34 33 33 35 38 42 42 45 45 45 43 46 49 49 53
0 1 nan nan nan nan nan nan nan nan nan nan nan nan nan nan nan nan nan nan nan nan nan nan nan nan nan nan nan nan nan nan nan nan nan nan 0 0 1 2 2 4 6 8 8 9 10 11 11 12 14 17 20 20 22 23 23 22 24 26 26 29 28 30 30 29 30 31 31 31 32 33 34 34 33 34 36 36 34 35 35 36 37 41 41 48
nan nan nan nan nan nan nan nan nan nan nan nan nan nan nan nan nan nan nan nan nan nan nan nan nan nan nan nan nan nan nan nan nan nan nan nan nan nan 0 1 1 3 4 6 6 8 10 12 12 13 15 17 19 19 20 22 22 23 24 25 25 25 26 26 26 27 27 29 28 28 30 30 29 29 29 28 28 28 29 30 30 31 33 38 38 44
nan nan nan nan nan nan nan nan nan nan nan nan nan nan nan nan nan nan nan nan nan nan nan nan nan nan nan nan nan nan nan nan nan nan nan nan nan nan nan 0 0 1 3 4 4 6 7 10 10 13 15 19 20 20 21 23 23 24 26 25 25 26 27 25 25 28 28 27 25 25 25 25 25 25 23 23 24 24 26 29 29 31 36 40 40 45
nan nan nan nan nan nan nan nan nan nan nan nan nan nan nan nan nan nan nan nan nan nan nan nan nan nan nan nan nan nan nan nan nan nan nan nan nan nan nan nan nan 0 1 3 3 4 6 9 9 11 13 16 17 17 18 18 18 18 16 19 19 18 18 18 18 18 17 17 17 17 16 16 18 18 18 19 21 21 23 27 27 35 46 52 52 58
nan nan nan nan nan nan nan nan nan nan nan nan nan nan nan nan nan nan nan nan nan nan nan nan nan nan nan nan nan nan nan nan nan nan nan nan nan nan nan 1 1 2 3 3 3 4 5 7 7 8 8 8 9 9 10 9 9 9 9 9 9 9 10 11 11 12 11 13 15 15 15 17 18 18 19 20 23 23 24 30 30 38 48 60 60 70
nan nan nan nan nan nan nan nan nan nan nan nan nan nan nan nan nan nan nan nan nan nan nan nan nan nan nan nan nan nan nan nan nan nan nan nan 0 0 2 0 0 0 2 2 2 2 3 3 3 3 3 3 3 3 4 3 3 4 4 3 3 4 5 7 7 10 12 13 15 15 17 19 20 20 23 24 26 26 31 35 35 41 53 67 67 80
nan nan nan nan nan nan nan nan nan nan nan nan nan nan nan nan nan nan nan nan nan nan nan nan nan nan nan nan nan nan nan nan nan nan nan nan nan nan 0 0 0 0 1 0 0 0 nan nan nan nan nan 0 0 0 0 0 0 0 1 1 1 3 5 7 7 10 12 14 17 17 20 22 24 24 28 30 33 33 37 41 41 44 53 67 67 78
nan nan nan nan nan nan nan nan nan nan nan nan nan nan nan nan nan nan nan nan nan nan nan nan nan nan nan nan nan nan nan nan nan nan nan nan nan nan nan nan nan nan nan nan nan nan nan nan nan nan nan nan nan nan nan nan nan nan 0 1 1 3 5 7 7 11 15 16 20 20 23 26 29 29 32 36 39 39 43 45 45 47 50 59 59 73
nan nan nan nan nan nan nan nan nan nan nan nan nan nan nan nan nan nan nan nan nan nan nan nan nan nan nan nan nan nan nan nan nan nan nan nan nan nan nan nan nan nan nan nan nan nan nan nan nan nan nan nan nan nan nan nan nan nan 0 1 1 4 7 10 10 14 17 19 22 22 24 29 31 31 33 37 40 40 44 46 46 46 54 62 62 70
nan nan nan nan nan nan nan nan nan nan nan nan nan nan nan nan nan nan nan nan nan nan nan nan nan nan nan nan nan nan nan nan nan nan nan nan nan nan nan nan nan nan nan nan nan nan nan nan nan nan nan nan nan nan nan nan nan nan 0 4 4 7 11 14 14 19 20 23 23 23 26 31 34 34 38 38 42 42 45 50 50 49 52 57 57 64
nan nan nan nan nan nan nan nan nan nan nan nan nan nan nan nan nan nan nan nan nan nan nan nan nan nan nan nan nan nan nan nan nan nan nan nan nan nan nan nan nan nan nan nan nan nan nan nan nan nan nan nan nan nan nan nan nan 1 3 7 7 10 13 17 17 21 21 24 26 26 28 28 33 33 36 40 43 43 46 48 48 47 49 57 57 59
nan nan nan nan nan nan nan nan nan nan nan nan nan nan nan nan nan nan nan nan nan nan nan nan nan nan nan nan nan nan nan nan nan nan nan nan nan nan nan nan nan nan nan nan nan nan nan nan nan nan nan nan nan nan nan nan nan 3 6 9 9 12 15 18 18 21 22 25 26 26 27 30 32 32 35 38 39 39 42 45 45 47 48 53 53 54
nan nan nan nan nan nan nan nan nan nan nan nan nan nan nan nan nan nan nan nan nan nan nan nan nan nan nan nan nan nan nan nan nan nan nan nan nan nan nan nan nan nan nan nan nan nan nan nan nan nan nan nan nan nan nan 0 0 3 7 10 10 13 15 19 19 21 23 24 26 26 27 28 29 29 31 34 35 35 40 43 43 47 47 50 50 52
nan nan nan nan nan nan nan nan nan nan nan nan nan nan nan nan nan nan nan nan nan nan nan nan nan nan nan nan nan nan nan nan nan nan nan nan nan nan nan nan nan nan nan nan nan nan nan nan nan nan nan nan nan nan nan 1 1 3 6 10 10 12 15 19 19 21 23 26 27 27 28 28 29 29 29 30 33 33 36 39 39 44 46 47 47 50
nan nan nan nan nan nan nan nan nan nan nan nan nan nan nan nan nan nan nan nan nan nan nan nan nan nan nan nan nan nan nan nan nan nan nan nan nan nan nan nan nan nan nan nan nan nan nan nan nan nan nan nan nan nan nan 1 1 3 6 9 9 11 14 17 17 20 22 23 25 25 28 30 30 30 32 31 32 32 33 37 37 38 42 45 45 47
nan nan nan nan nan nan nan nan nan nan nan nan nan nan nan nan nan nan nan nan nan nan nan nan nan nan nan nan nan nan nan nan nan nan nan nan nan nan nan nan nan nan nan nan nan nan nan nan nan nan nan nan nan nan nan 0 0 2 6 8 8 10 11 14 14 17 20 22 23 23 24 25 28 28 27 30 32 32 34 34 34 37 41 45 45 47
nan nan nan nan nan nan nan nan nan nan nan nan nan nan nan nan nan nan nan nan nan nan nan nan nan nan nan nan nan nan nan nan nan nan nan nan nan nan nan nan nan nan nan nan nan nan nan nan nan nan nan nan nan nan nan 0 0 2 3 6 6 7 9 11 11 14 16 18 21 21 22 25 26 26 28 31 32 32 34 36 36 39 40 42 42 45
nan nan nan nan nan nan nan nan nan nan nan nan nan nan nan nan nan nan nan nan nan nan nan nan nan nan 0 1 nan nan nan nan nan nan nan nan nan nan nan nan nan nan nan nan nan nan nan nan nan nan nan nan nan nan nan 0 0 1 3 5 5 6 8 10 10 13 16 18 20 20 22 25 26 26 30 30 31 31 34 35 35 38 42 43 43 44
nan nan nan nan nan nan nan nan nan nan nan nan nan nan nan nan nan nan nan nan nan nan 3 7 7 3 nan nan nan nan nan nan nan nan nan nan nan nan nan nan nan nan nan nan nan nan nan nan nan nan nan nan nan nan nan 0 0 1 2 4 4 5 8 11 11 14 17 18 19 19 22 23 25 25 27 31 32 32 34 34 34 36 39 41 41 44
nan nan nan nan nan nan nan nan nan nan nan nan nan nan nan nan nan nan nan 3 3 0 0 nan nan nan nan nan nan nan nan nan nan nan nan nan nan nan nan nan nan nan nan nan nan nan nan nan nan nan nan nan nan nan nan nan nan 1 1 3 3 5 9 12 12 14 15 16 17 17 18 20 23 23 25 25 29 29 31 34 34 34 38 39 39 42
nan nan nan nan nan nan nan nan nan nan nan nan nan nan nan nan 2 2 0 nan nan nan nan nan nan nan nan nan nan nan nan nan nan nan nan nan nan nan nan nan nan nan nan nan nan nan nan nan nan nan nan nan nan nan nan nan nan 0 2 4 4 6 8 10 10 10 10 11 12 12 15 17 21 21 23 26 27 27 31 33 33 33 35 37 37 36
nan nan nan nan nan nan nan 0 1 1 nan nan nan nan 0 0 nan nan nan nan nan nan nan nan nan nan nan nan nan nan nan nan nan nan nan nan nan nan nan nan nan nan nan nan nan nan nan nan nan nan nan nan nan nan nan nan nan 0 2 4 4 5 6 6 6 6 6 7 11 11 13 17 21 21 24 28 27 27 30 31 31 33 34 34 34 36
nan nan nan nan nan 0 3 8 11 11 14 16 4 4 nan nan nan nan nan nan nan nan nan nan nan nan nan nan nan nan nan nan nan nan nan nan nan nan nan nan nan nan nan nan nan nan nan nan nan nan nan nan nan nan nan nan nan 0 2 3 3 3 2 2 2 3 4 7 10 10 14 16 21 21 24 25 27 27 30 28 28 31 33 32 32 32
nan nan 0 0 0 0 1 3 8 8 12 15 20 20 8 nan nan nan nan nan nan nan nan nan nan nan nan nan nan nan nan nan nan nan nan nan nan nan nan nan nan nan nan nan nan nan nan nan nan nan nan nan nan nan nan nan nan 0 0 0 0 0 1 2 2 3 5 8 11 11 14 17 20 20 23 25 26 26 29 29 29 31 31 21 21 5
1 2 3 4 4 4 8 8 8 8 10 12 15 15 5 nan nan nan nan nan nan nan nan nan nan nan nan nan nan nan nan nan nan nan nan nan nan nan nan nan nan nan nan nan nan nan nan nan nan nan nan nan nan nan nan nan nan nan nan nan nan 0 0 2 2 3 5 8 11 11 14 17 19 19 20 24 25 25 29 29 29 30 23 11 11 2
nan nan 0 3 3 4 2 nan 2 2 5 7 11 11 8 nan nan nan nan nan nan nan nan 0 0 0 nan nan nan nan nan nan nan nan nan nan nan nan nan nan nan nan nan nan nan nan nan nan nan nan nan nan nan nan nan nan nan nan nan nan nan nan 1 2 2 3 6 9 11 11 13 17 18 18 19 20 23 23 24 29 29 24 9 2 2 1
nan nan nan nan nan nan nan nan nan nan 1 2 3 3 nan nan nan nan nan nan nan nan 0 0 0 nan nan nan nan nan nan nan nan nan nan nan nan nan nan nan nan nan nan nan nan nan nan nan nan nan nan nan nan nan nan nan nan nan nan nan nan nan nan 1 1 2 5 7 10 10 12 13 14 14 15 16 18 18 19 26 26 20 4 1 1 1
nan nan nan nan nan nan nan nan nan nan nan nan nan nan nan nan nan nan nan nan nan nan nan 0 0 1 1 1 nan nan nan nan nan nan nan nan nan nan nan nan nan nan nan nan nan nan nan nan nan nan nan nan nan nan nan nan nan nan nan nan nan nan nan 0 0 0 0 4 6 6 6 7 7 7 7 9 11 11 14 18 18 21 5 1 1 2
nan nan nan nan nan nan nan nan nan nan nan nan nan nan nan nan nan nan nan nan nan nan nan nan nan 0 0 0 0 0 nan nan nan nan nan nan nan nan nan nan nan nan nan nan nan nan nan nan nan nan nan nan nan nan nan nan nan nan nan nan nan nan nan nan nan nan nan nan 0 0 3 3 4 4 6 7 9 9 13 16 16 22 21 2 2 2
nan nan nan nan nan nan nan nan nan nan nan nan nan nan nan nan nan nan nan nan nan nan nan nan nan nan nan nan nan nan nan nan nan nan 1 nan nan nan nan 0 0 0 0 nan nan nan nan nan nan nan nan nan nan nan nan nan nan nan nan nan nan nan nan nan nan nan nan nan nan nan nan nan nan nan 2 4 7 7 12 18 18 26 32 17 17 7
nan nan nan nan nan nan nan nan nan nan nan nan nan nan nan nan nan nan nan nan nan nan nan nan nan nan nan nan nan nan nan nan nan nan 2 0 nan nan nan nan nan nan nan nan nan nan nan nan nan nan nan nan nan nan nan nan nan nan nan nan nan nan nan nan nan nan nan nan nan nan nan nan nan nan nan 0 6 6 14 20 20 28 32 39 39 26
nan nan nan nan nan nan nan nan nan nan nan nan nan nan nan nan nan nan nan nan nan nan nan nan nan nan nan nan nan nan nan nan nan nan 3 1 0 0 nan 0 0 0 nan nan nan nan nan nan nan 0 0 nan nan nan nan nan nan nan nan nan nan nan nan nan nan nan nan nan nan nan nan nan nan nan nan 3 10 10 16 18 18 21 22 29 29 34
nan nan nan nan nan nan nan nan nan nan nan nan nan nan nan nan nan nan nan nan nan nan nan 0 0 nan 2 nan nan nan nan nan 0 0 2 2 1 1 0 1 1 2 nan nan nan nan nan nan nan nan nan nan nan nan nan nan nan nan nan nan nan nan nan nan nan nan nan nan nan nan nan nan nan nan nan 3 2 2 6 10 10 8 15 20 20 28
nan nan nan nan nan nan nan nan nan nan nan nan nan nan nan nan nan nan nan nan nan nan nan nan nan nan 3 6 1 1 0 nan nan nan nan 0 1 1 0 0 0 1 0 nan nan nan nan nan nan nan nan nan nan nan nan nan nan nan nan nan nan nan nan nan nan nan nan nan nan nan nan nan nan nan nan nan nan nan nan nan nan nan 5 9 9 23
nan nan nan nan nan nan nan nan nan nan nan nan nan nan nan nan nan nan nan nan nan nan nan nan nan nan nan 0 4 4 4 1 nan nan nan nan nan nan nan nan nan nan nan nan nan nan nan nan nan nan nan nan nan nan nan nan nan nan nan nan nan nan nan nan nan nan nan nan nan nan nan nan nan nan nan nan nan nan nan nan nan nan nan nan nan nan
nan nan nan 0 0 nan nan nan nan nan nan nan nan nan nan nan nan nan nan nan nan nan nan nan nan nan nan 1 2 2 1 nan nan nan nan nan nan nan nan nan nan nan nan nan nan nan nan nan nan nan nan nan nan nan nan nan nan nan 0 nan nan nan nan nan nan nan nan nan nan nan nan nan nan nan nan nan nan nan nan nan nan nan nan nan nan nan
nan nan nan nan nan nan nan nan nan nan nan nan nan nan nan nan nan nan nan nan nan nan nan nan nan nan nan nan nan nan nan nan nan nan nan nan nan nan nan nan nan nan nan nan nan nan nan nan nan nan nan nan nan nan nan nan nan 1 5 nan nan nan nan nan nan nan nan nan nan nan nan nan nan nan nan nan nan nan nan nan nan nan nan nan nan nan
0 nan nan nan nan nan nan nan nan nan nan nan nan nan nan nan nan nan nan nan nan nan nan nan nan nan nan nan nan nan nan nan nan nan nan nan nan nan nan nan nan nan nan nan nan nan nan nan nan nan nan nan nan nan nan nan nan 0 1 nan nan nan nan nan nan nan nan nan nan nan nan nan nan nan nan nan nan nan nan nan nan nan nan nan nan nan
nan nan nan nan nan nan nan nan nan nan nan nan nan nan nan nan nan nan nan nan nan nan nan nan nan nan nan nan nan nan nan nan nan nan nan nan nan nan nan nan nan nan nan nan nan nan nan nan nan nan nan nan nan nan nan nan nan nan nan nan nan nan nan nan nan nan nan nan nan nan nan nan nan nan nan nan nan nan nan nan nan nan nan nan nan nan
nan nan nan nan nan nan nan nan nan nan nan nan nan nan nan nan nan nan 0 nan nan nan nan 0 0 nan nan nan nan nan nan nan nan nan nan nan nan nan nan nan nan nan nan nan nan nan nan nan nan nan nan nan nan nan nan nan nan nan nan nan nan nan nan nan nan nan nan nan nan nan nan nan nan nan nan nan nan nan nan nan nan nan nan nan nan nan
nan nan nan nan nan nan nan nan nan nan nan nan nan nan nan nan 0 0 nan nan nan nan nan nan nan nan nan nan nan nan nan nan nan nan nan nan nan nan nan nan nan nan nan nan nan nan nan nan nan nan nan nan nan nan nan nan nan nan nan nan nan nan nan nan nan nan nan nan nan nan nan nan nan nan nan nan nan nan nan nan nan nan nan nan nan nan
nan nan nan nan nan nan 1 0 nan nan nan nan nan nan nan nan nan nan 0 nan nan nan nan nan nan nan nan nan nan nan nan nan nan nan nan nan nan nan nan nan nan nan nan nan nan nan nan nan nan nan nan nan nan nan nan nan nan nan nan nan nan nan nan nan nan nan nan nan nan nan nan nan nan nan nan nan nan nan nan nan nan nan nan nan nan nan
nan nan nan nan nan nan nan 0 nan nan nan 0 nan nan nan nan nan nan nan nan nan nan nan 0 0 nan nan nan nan nan nan nan nan nan nan nan nan nan nan nan nan nan nan nan nan nan nan nan nan nan nan nan nan nan nan nan nan nan nan nan nan nan nan nan nan nan nan nan nan nan nan nan nan nan nan nan nan nan nan nan nan nan nan nan nan nan
nan nan nan nan nan nan nan nan nan nan nan nan nan nan nan nan nan nan nan nan nan 0 1 nan nan nan nan nan nan nan nan nan nan nan nan nan nan nan nan nan nan nan nan nan nan nan nan nan nan nan nan nan nan nan nan nan nan nan nan nan nan nan nan nan nan nan nan nan nan nan nan nan nan nan nan nan 0 0 0 nan nan nan nan nan nan nan
nan nan nan nan nan nan nan nan nan nan nan nan nan nan nan nan 8 8 nan nan nan nan nan nan nan nan nan nan nan nan nan nan nan nan nan nan nan nan nan nan nan nan nan nan nan nan nan nan nan nan nan nan nan nan nan nan nan nan nan nan nan nan nan nan nan nan nan nan nan nan nan nan nan nan nan nan 0 0 1 0 0 nan nan nan nan nan
nan nan nan nan nan nan nan nan nan nan nan nan nan nan nan nan nan nan nan nan nan nan nan nan nan nan nan nan nan nan nan nan nan nan nan nan nan nan nan nan nan nan nan nan nan nan nan nan nan nan 3 0 nan nan nan nan nan nan nan nan nan nan nan nan nan nan nan nan nan nan nan nan nan nan nan nan 0 0 0 nan nan nan nan nan nan nan
0 nan nan nan nan nan nan nan nan nan nan nan nan nan nan nan nan nan nan nan nan nan nan nan nan nan nan nan nan nan nan nan nan nan nan nan nan nan nan nan nan nan nan nan nan nan nan nan nan nan 1 11 1 1 nan nan nan nan nan nan nan nan nan nan nan nan nan nan nan nan nan nan nan nan nan nan nan nan nan nan nan nan nan nan nan nan
CIN
-0 -0 -1 nan nan -1 nan nan nan nan nan nan nan nan nan nan nan nan nan nan nan nan nan nan nan nan nan nan nan nan nan nan nan nan nan -0 -0 -0 -0 -0 -0 -0 -0 -0 -0 -0 -0 -0 -0 -0 -0 -0 -0 -0 -0 -0 -0 -0 -0 -0 -0 -0 -0 -0 -0 -0 -0 -0 -0 -0 -0 -0 -0 -0 -0 -0 -0 -0 -0 -0 -0 -0 -0 -0 -0 -0
-1 -1 -3 nan nan nan -1 nan nan nan nan nan nan nan nan nan nan nan nan nan nan nan nan nan nan nan nan nan nan nan nan nan nan nan -0 -0 -0 -0 -0 -0 -0 -0 -0 -0 -0 -0 -0 -0 -0 -0 -0 -0 -0 -0 -0 -0 -0 -0 -0 -0 -0 -0 -0 -0 -0 -0 -0 -0 -0 -0 -0 -0 -0 -0 -0 -0 -0 -0 -0 -0 -0 -0 -0 -0 -0 -0
-0 -1 -2 nan nan nan nan nan nan nan nan nan nan nan nan nan nan nan nan nan nan nan nan nan nan nan nan nan nan nan nan nan nan nan -0 -0 -0 -0 -0 -0 -0 -0 -0 -0 -0 -0 -0 -0 -0 -0 -0 -0 -0 -0 -0 -0 -0 -0 -0 -0 -0 -0 -0 -0 -0 -0 -0 -0 -0 -0 -0 -0 -0 -0 -0 -0 -0 -0 -0 -0 -0 -0 -0 -0 -0 -0
-1 -0 -0 nan nan nan nan nan nan nan nan nan nan nan nan nan nan nan nan nan nan nan nan nan nan nan nan nan nan nan nan nan nan nan nan -0 -0 -0 -0 -0 -0 -0 -0 -0 -0 -0 -0 -0 -0 -0 -0 -0 -0 -0 -0 -0 -0 -0 -0 -0 -0 -0 -0 -0 -0 -0 -0 -0 -0 -0 -0 -0 -0 -0 -0 -0 -0 -0 -0 -0 -0 -0 -0 -0 -0 -0
-1 -1 nan nan nan nan nan nan nan nan nan nan nan nan nan nan nan nan nan nan nan nan nan nan nan nan nan nan nan nan nan nan nan nan nan nan -0 -0 -0 -0 -0 -0 -0 -0 -0 -0 -0 -0 -0 -0 -0 -0 -0 -0 -0 -0 -0 -0 -0 -0 -0 -0 -0 -0 -0 -0 -0 -0 -0 -0 -0 -0 -0 -0 -0 -0 -0 -0 -0 -0 -0 -0 -0 -0 -0 -0
nan nan nan nan nan nan nan nan nan nan nan nan nan nan nan nan nan nan nan nan nan nan nan nan nan nan nan nan nan nan nan nan nan nan nan nan nan nan -0 -0 -0 -0 -0 -0 -0 -0 -0 -0 -0 -0 -0 -0 -0 -0 -0 -0 -0 -0 -0 -0 -0 -0 -0 -0 -0 -0 -0 -0 -0 -0 -0 -0 -0 -0 -0 -0 -0 -0 -0 -0 -0 -0 -0 -0 -0 -0
nan nan nan nan nan nan nan nan nan nan nan nan nan nan nan nan nan nan nan nan nan nan nan nan nan nan nan nan nan nan nan nan nan nan nan nan nan nan nan -0 -0 -0 -0 -0 -0 -0 -0 -0 -0 -0 -0 -0 -0 -0 -0 -0 -0 -0 -0 -0 -0 -0 -0 -0 -0 -0 -0 -0 -0 -0 -0 -0 -0 -0 -0 -0 -0 -0 -0 -0 -0 -0 -0 -0 -0 -0
nan nan nan nan nan nan nan nan nan nan nan nan nan nan nan nan nan nan nan nan nan nan nan nan nan nan nan nan nan nan nan nan nan nan nan nan nan nan nan nan nan -0 -0 -0 -0 -0 -0 -0 -0 -0 -0 -0 -0 -0 -0 -0 -0 -0 -0 -0 -0 -0 -0 -0 -0 -0 -0 -0 -0 -0 -0 -0 -0 -0 -0 -0 -0 -0 -0 -0 -0 -0 -0 -0 -0 -0
nan nan nan nan nan nan nan nan nan nan nan nan nan nan nan nan nan nan nan nan nan nan nan nan nan nan nan nan nan nan nan nan nan nan nan nan nan nan nan -0 -0 -0 -0 -0 -0 -0 -0 -0 -0 -0 -0 -0 -0 -0 -0 -0 -0 -0 -0 -0 -0 -0 -0 -0 -0 -0 -0 -0 -0 -0 -0 -0 -0 -0 -0 -0 -0 -0 -0 -0 -0 -0 -0 -0 -0 -0
nan nan nan nan nan nan nan nan nan nan nan nan nan nan nan nan nan nan nan nan nan nan nan nan nan nan nan nan nan nan nan nan nan nan nan nan -0 -0 -2 -2 -2 -13 -0 -0 -0 -0 -0 -0 -0 -0 -0 -0 -0 -0 -0 -0 -0 -0 -0 -0 -0 -0 -0 -0 -0 -0 -0 -0 -0 -0 -0 -0 -0 -0 -0 -0 -0 -0 -0 -0 -0 -0 -0 -0 -0 -0
nan nan nan nan nan nan nan nan nan nan nan nan nan nan nan nan nan nan nan nan nan nan nan nan nan nan nan nan nan nan nan nan nan nan nan nan nan nan -3 -12 -12 -4 -0 -0 -0 -0 nan nan nan nan nan -0 -0 -0 -0 -0 -0 -0 -0 -0 -0 -0 -0 -0 -0 -0 -0 -0 -0 -0 -0 -0 -0 -0 -0 -0 -0 -0 -0 -0 -0 -0 -0 -0 -0 -0
nan nan nan nan nan nan nan nan nan nan nan nan nan nan nan nan nan nan nan nan nan nan nan nan nan nan nan nan nan nan nan nan nan nan nan nan nan nan nan nan nan nan nan nan nan nan nan nan nan nan nan nan nan nan nan nan nan nan -0 -0 -0 -0 -0 -0 -0 -0 -0 -0 -0 -0 -0 -0 -0 -0 -0 -0 -0 -0 -0 -0 -0 -0 -0 -0 -0 -0
nan nan nan nan nan nan nan nan nan nan nan nan nan nan nan nan nan nan nan nan nan nan nan nan nan nan nan nan nan nan nan nan nan nan nan nan nan nan nan nan nan nan nan nan nan nan nan nan nan nan nan nan nan nan nan nan nan nan -0 -0 -0 -0 -0 -0 -0 -0 -0 -0 -0 -0 -0 -0 -0 -0 -0 -0 -0 -0 -0 -0 -0 -0 -0 -0 -0 -0
nan nan nan nan nan nan nan nan nan nan nan nan nan nan nan nan nan nan nan nan nan nan nan nan nan nan nan nan nan nan nan nan nan nan nan nan nan nan nan nan nan nan nan nan nan nan nan nan nan nan nan nan nan nan nan nan nan nan -0 -0 -0 -0 -0 -0 -0 -0 -0 -0 -0 -0 -0 -0 -0 -0 -0 -0 -0 -0 -0 -0 -0 -0 -0 -0 -0 -0
nan nan nan nan nan nan nan nan nan nan nan nan nan nan nan nan nan nan nan nan nan nan nan nan nan nan nan nan nan nan nan nan nan nan nan nan nan nan nan nan nan nan nan nan nan nan nan nan nan nan nan nan nan nan nan nan nan -0 -0 -0 -0 -0 -0 -0 -0 -0 -0 -0 -0 -0 -0 -0 -0 -0 -0 -0 -0 -0 -0 -0 -0 -0 -0 -0 -0 -0
nan nan nan nan nan nan nan nan nan nan nan nan nan nan nan nan nan nan nan nan nan nan nan nan nan nan nan nan nan nan nan nan nan nan nan nan nan nan nan nan nan nan nan nan nan nan nan nan nan nan nan nan nan nan nan nan nan -0 -0 -0 -0 -0 -0 -0 -0 -0 -0 -0 -0 -0 -0 -0 -0 -0 -0 -0 -0 -0 -0 -0 -0 -0 -0 -0 -0 -0
nan nan nan nan nan nan nan nan nan nan nan nan nan nan nan nan nan nan nan nan nan nan nan nan nan nan nan nan nan nan nan nan nan nan nan nan nan nan nan nan nan nan nan nan nan nan nan nan nan nan nan nan nan nan nan -0 -0 -0 -0 -0 -0 -0 -0 -0 -0 -0 -0 -0 -0 -0 -0 -0 -0 -0 -0 -0 -0 -0 -0 -0 -0 -0 -0 -0 -0 -0
nan nan nan nan nan nan nan nan nan nan nan nan nan nan nan nan nan nan nan nan nan nan nan nan nan nan nan nan nan nan nan nan nan nan nan nan nan nan nan nan nan nan nan nan nan nan nan nan nan nan nan nan nan nan nan -0 -0 -0 -0 -0 -0 -0 -0 -0 -0 -0 -0 -0 -0 -0 -0 -0 -0 -0 -0 -0 -0 -0 -0 -0 -0 -0 -0 -0 -0 -0
nan nan nan nan nan nan nan nan nan nan nan nan nan nan nan nan nan nan nan nan nan nan nan nan nan nan nan nan nan nan nan nan nan nan nan nan nan nan nan nan nan nan nan nan nan nan nan nan nan nan nan nan nan nan nan -0 -0 -0 -0 -0 -0 -0 -0 -0 -0 -0 -0 -0 -0 -0 -0 -0 -0 -0 -0 -0 -0 -0 -0 -0 -0 -0 -0 -0 -0 -0
nan nan nan nan nan nan nan nan nan nan nan nan nan nan nan nan nan nan nan nan nan nan nan nan nan nan nan nan nan nan nan nan nan nan nan nan nan nan nan nan nan nan nan nan nan nan nan nan nan nan nan nan nan nan nan -0 -0 -0 -0 -0 -0 -0 -0 -0 -0 -0 -0 -0 -0 -0 -0 -0 -0 -0 -0 -0 -0 -0 -0 -0 -0 -0 -0 -0 -0 -0
nan nan nan nan nan nan nan nan nan nan nan nan nan nan nan nan nan nan nan nan nan nan nan nan nan nan nan nan nan nan nan nan nan nan nan nan nan nan nan nan nan nan nan nan nan nan nan nan nan nan nan nan nan nan nan -0 -0 -0 -0 -0 -0 -0 -0 -0 -0 -0 -0 -0 -0 -0 -0 -0 -0 -0 -0 -0 -0 -0 -0 -0 -0 -0 -0 -0 -0 -0
nan nan nan nan nan nan nan nan nan nan nan nan nan nan nan nan nan nan nan nan nan nan nan nan nan nan -21 -11 nan nan nan nan nan nan nan nan nan nan nan nan nan nan nan nan nan nan nan nan nan nan nan nan nan nan nan -0 -0 -0 -0 -0 -0 -0 -0 -0 -0 -0 -0 -0 -0 -0 -0 -0 -0 -0 -0 -0 -0 -0 -0 -0 -0 -0 -0 -0 -0 -0
nan nan nan nan nan nan nan nan nan nan nan nan nan nan nan nan nan nan nan nan nan nan -9 -7 -7 -20 nan nan nan nan nan nan nan nan nan nan nan nan nan nan nan nan nan nan nan nan nan nan nan nan nan nan nan nan nan -0 -0 -0 -0 -0 -0 -0 -0 -0 -0 -0 -0 -0 -0 -0 -0 -0 -0 -0 -0 -0 -0 -0 -0 -0 -0 -0 -0 -0 -0 -0
nan nan nan nan nan nan nan nan nan nan nan nan nan nan nan nan nan nan nan -8 -8 -17 -18 nan nan nan nan nan nan nan nan nan nan nan nan nan nan nan nan nan nan nan nan nan nan nan nan nan nan nan nan nan nan nan nan nan nan -0 -0 -0 -0 -0 -0 -0 -0 -0 -0 -0 -0 -0 -0 -0 -0 -0 -0 -0 -0 -0 -0 -0 -0 -0 -0 -0 -0 -0
nan nan nan nan nan nan nan nan nan nan nan nan nan nan nan nan -28 -28 -44 nan nan nan nan nan nan nan nan nan nan nan nan nan nan nan nan nan nan nan nan nan nan nan nan nan nan nan nan nan nan nan nan nan nan nan nan nan nan -0 -0 -0 -0 -0 -0 -0 -0 -0 -0 -0 -0 -0 -0 -0 -0 -0 -0 -0 -0 -0 -0 -0 -0 -0 -0 -0 -0 -0
nan nan nan nan nan nan nan -7 -5 -5 nan nan nan nan -48 -47 nan nan nan nan nan nan nan nan nan nan nan nan nan nan nan nan nan nan nan nan nan nan nan nan nan nan nan nan nan nan nan nan nan nan nan nan nan nan nan nan nan -0 -0 -0 -0 -0 -0 -0 -0 -0 -0 -0 -0 -0 -0 -0 -0 -0 -0 -0 -0 -0 -0 -0 -0 -0 -0 -0 -0 -0
nan nan nan nan nan -0 -0 -0 -0 -0 -0 -0 -20 -20 nan nan nan nan nan nan nan nan nan nan nan nan nan nan nan nan nan nan nan nan nan nan nan nan nan nan nan nan nan nan nan nan nan nan nan nan nan nan nan nan nan nan nan -0 -0 -0 -0 -0 -0 -0 -0 -0 -0 -0 -0 -0 -0 -0 -0 -0 -0 -0 -0 -0 -0 -0 -0 -0 -0 -0 -0 -0
nan nan -0 -0 -0 -0 -0 -0 -0 -0 -0 -0 -0 -0 -9 nan nan nan nan nan nan nan nan nan nan nan nan nan nan nan nan nan nan nan nan nan nan nan nan nan nan nan nan nan nan nan nan nan nan nan nan nan nan nan nan nan nan -0 -0 -0 -0 -0 -0 -0 -0 -0 -0 -0 -0 -0 -0 -0 -0 -0 -0 -0 -0 -0 -0 -0 -0 -0 -0 -0 -0 -19
-0 -0 -0 -0 -0 -0 -0 -0 -0 -0 -0 -0 -0 -0 -6 nan nan nan nan nan nan nan nan nan nan nan nan nan nan nan nan nan nan nan nan nan nan nan nan nan nan nan nan nan nan nan nan nan nan nan nan nan nan nan nan nan nan nan nan nan nan -0 -0 -0 -0 -0 -0 -0 -0 -0 -0 -0 -0 -0 -0 -0 -0 -0 -0 -0 -0 -0 -0 -3 -3 -26
nan nan -4 -0 -0 -0 -0 nan -2 -2 -0 -0 -0 -0 -0 nan nan nan nan nan nan nan nan -4 -4 -5 nan nan nan nan nan nan nan nan nan nan nan nan nan nan nan nan nan nan nan nan nan nan nan nan nan nan nan nan nan nan nan nan nan nan nan nan -0 -0 -0 -0 -0 -0 -0 -0 -0 -0 -0 -0 -0 -0 -0 -0 -0 -0 -0 -0 -6 -23 -23 -34
nan nan nan nan nan nan nan nan nan nan -0 -0 -0 -0 nan nan nan nan nan nan nan nan -5 -3 -3 nan nan nan nan nan nan nan nan nan nan nan nan nan nan nan nan nan nan nan nan nan nan nan nan nan nan nan nan nan nan nan nan nan nan nan nan nan nan -0 -0 -0 -0 -0 -0 -0 -0 -0 -0 -0 -0 -0 -0 -0 -0 -0 -0 -0 -15 -31 -31 -36
nan nan nan nan nan nan nan nan nan nan nan nan nan nan nan nan nan nan nan nan nan nan nan -10 -10 -8 -8 -5 nan nan nan nan nan nan nan nan nan nan nan nan nan nan nan nan nan nan nan nan nan nan nan nan nan nan nan nan nan nan nan nan nan nan nan -0 -0 -0 -0 -0 -0 -0 -0 -0 -0 -0 -0 -0 -0 -0 -0 -0 -0 -0 -12 -29 -29 -23
nan nan nan nan nan nan nan nan nan nan nan nan nan nan nan nan nan nan nan nan nan nan nan nan nan -10 -10 -9 -6 -6 nan nan nan nan nan nan nan nan nan nan nan nan nan nan nan nan nan nan nan nan nan nan nan nan nan nan nan nan nan nan nan nan nan nan nan nan nan nan -1 -1 -0 -0 -0 -0 -0 -0 -0 -0 -0 -0 -0 -0 -0 -24 -24 -21
nan nan nan nan nan nan nan nan nan nan nan nan nan nan nan nan nan nan nan nan nan nan nan nan nan nan nan nan nan nan nan nan nan nan -15 nan nan nan nan -7 -7 -8 -8 nan nan nan nan nan nan nan nan nan nan nan nan nan nan nan nan nan nan nan nan nan nan nan nan nan nan nan nan nan nan nan -0 -0 -0 -0 -0 -0 -0 -0 -0 -3 -3 -16
nan nan nan nan nan nan nan nan nan nan nan nan nan nan nan nan nan nan nan nan nan nan nan nan nan nan nan nan nan nan nan nan nan nan -7 -10 nan nan nan nan nan nan nan nan nan nan nan nan nan nan nan nan nan nan nan nan nan nan nan nan nan nan nan nan nan nan nan nan nan nan nan nan nan nan nan -0 -0 -0 -0 -0 -0 -0 -0 -0 -0 -0
nan nan nan nan nan nan nan nan nan nan nan nan nan nan nan nan nan nan nan nan nan nan nan nan nan nan nan nan nan nan nan nan nan nan -1 -9 -9 -9 nan -5 -5 -5 nan nan nan nan nan nan nan -1 -0 nan nan nan nan nan nan nan nan nan nan nan nan nan nan nan nan nan nan nan nan nan nan nan nan -0 -0 -0 -0 -0 -0 -0 -0 -0 -0 -0
nan nan nan nan nan nan nan nan nan nan nan nan nan nan nan nan nan nan nan nan nan nan nan -11 -11 nan -8 nan nan nan nan nan -8 -8 -3 -12 -10 -10 -4 -3 -3 -2 nan nan nan nan nan nan nan nan nan nan nan nan nan nan nan nan nan nan nan nan nan nan nan nan nan nan nan nan nan nan nan nan nan -0 -0 -0 -0 -0 -0 -0 -0 -0 -0 -0
nan nan nan nan nan nan nan nan nan nan nan nan nan nan nan nan nan nan nan nan nan nan nan nan nan nan -1 -0 -14 -14 -16 nan nan nan nan -21 -11 -11 -5 -4 -4 -3 -4 nan nan nan nan nan nan nan nan nan nan nan nan nan nan nan nan nan nan nan nan nan nan nan nan nan nan nan nan nan nan nan nan nan nan nan nan nan nan nan -0 -0 -0 -0
nan nan nan nan nan nan nan nan nan nan nan nan nan nan nan nan nan nan nan nan nan nan nan nan nan nan nan -25 -6 -6 -4 -17 nan nan nan nan nan nan nan nan nan nan nan nan nan nan nan nan nan nan nan nan nan nan nan nan nan nan nan nan nan nan nan nan nan nan nan nan nan nan nan nan nan nan nan nan nan nan nan nan nan nan nan nan nan nan
nan nan nan -6 -6 nan nan nan nan nan nan nan nan nan nan nan nan nan nan nan nan nan nan nan nan nan nan -11 -6 -6 -12 nan nan nan nan nan nan nan nan nan nan nan nan nan nan nan nan nan nan nan nan nan nan nan nan nan nan nan -4 nan nan nan nan nan nan nan nan nan nan nan nan nan nan nan nan nan nan nan nan nan nan nan nan nan nan nan
nan nan nan nan nan nan nan nan nan nan nan nan nan nan nan nan nan nan nan nan nan nan nan nan nan nan nan nan nan nan nan nan nan nan nan nan nan nan nan nan nan nan nan nan nan nan nan nan nan nan nan nan nan nan nan nan nan -1 -0 nan nan nan nan nan nan nan nan nan nan nan nan nan nan nan nan nan nan nan nan nan nan nan nan nan nan nan
-1 nan nan nan nan nan nan nan nan nan nan nan nan nan nan nan nan nan nan nan nan nan nan nan nan nan nan nan nan nan nan nan nan nan nan nan nan nan nan nan nan nan nan nan nan nan nan nan nan nan nan nan nan nan nan nan nan -5 -2 nan nan nan nan nan nan nan nan nan nan nan nan nan nan nan nan nan nan nan nan nan nan nan nan nan nan nan
nan nan nan nan nan nan nan nan nan nan nan nan nan nan nan nan nan nan nan nan nan nan nan nan nan nan nan nan nan nan nan nan nan nan nan nan nan nan nan nan nan nan nan nan nan nan nan nan nan nan nan nan nan nan nan nan nan nan nan nan nan nan nan nan nan nan nan nan nan nan nan nan nan nan nan nan nan nan nan nan nan nan nan nan nan nan
nan nan nan nan nan nan nan nan nan nan nan nan nan nan nan nan nan nan -9 nan nan nan nan -19 -19 nan nan nan nan nan nan nan nan nan nan nan nan nan nan nan nan nan nan nan nan nan nan nan nan nan nan nan nan nan nan nan nan nan nan nan nan nan nan nan nan nan nan nan nan nan nan nan nan nan nan nan nan nan nan nan nan nan nan nan nan nan
nan nan nan nan nan nan nan nan nan nan nan nan nan nan nan nan -11 -11 nan nan nan nan nan nan nan nan nan nan nan nan nan nan nan nan nan nan nan nan nan nan nan nan nan nan nan nan nan nan nan nan nan nan nan nan nan nan nan nan nan nan nan nan nan nan nan nan nan nan nan nan nan nan nan nan nan nan nan nan nan nan nan nan nan nan nan nan
nan nan nan nan nan nan -6 -11 nan nan nan nan nan nan nan nan nan nan -14 nan nan nan nan nan nan nan nan nan nan nan nan nan nan nan nan nan nan nan nan nan nan nan nan nan nan nan nan nan nan nan nan nan nan nan nan nan nan nan nan nan nan nan nan nan nan nan nan nan nan nan nan nan nan nan nan nan nan nan nan nan nan nan nan nan nan nan
nan nan nan nan nan nan nan -14 nan nan nan -13 nan nan nan nan nan nan nan nan nan nan nan -19 -19 nan nan nan nan nan nan nan nan nan nan nan nan nan nan nan nan nan nan nan nan nan nan nan nan nan nan nan nan nan nan nan nan nan nan nan nan nan nan nan nan nan nan nan nan nan nan nan nan nan nan nan nan nan nan nan nan nan nan nan nan nan
nan nan nan nan nan nan nan nan nan nan nan nan nan nan nan nan nan nan nan nan nan -16 -6 nan nan nan nan nan nan nan nan nan nan nan nan nan nan nan nan nan nan nan nan nan nan nan nan nan nan nan nan nan nan nan nan nan nan nan nan nan nan nan nan nan nan nan nan nan nan nan nan nan nan nan nan nan -14 -14 -18 nan nan nan nan nan nan nan
nan nan nan nan nan nan nan nan nan nan nan nan nan nan nan nan -0 -0 nan nan nan nan nan nan nan nan nan nan nan nan nan nan nan nan nan nan nan nan nan nan nan nan nan nan nan nan nan nan nan nan nan nan nan nan nan nan nan nan nan nan nan nan nan nan nan nan nan nan nan nan nan nan nan nan nan nan -9 -9 -12 -18 -18 nan nan nan nan nan
nan nan nan nan nan nan nan nan nan nan nan nan nan nan nan nan nan nan nan nan nan nan nan nan nan nan nan nan nan nan nan nan nan nan nan nan nan nan nan nan nan nan nan nan nan nan nan nan nan nan -11 -10 nan nan nan nan nan nan nan nan nan nan nan nan nan nan nan nan nan nan nan nan nan nan nan nan -9 -9 -13 nan nan nan nan nan nan nan
-6 nan nan nan nan nan nan nan nan nan nan nan nan nan nan nan nan nan nan nan nan nan nan nan nan nan nan nan nan nan nan nan nan nan nan nan nan nan nan nan nan nan nan nan nan nan nan nan nan nan -11 -1 -14 -14 nan nan nan nan nan nan nan nan nan nan nan nan nan nan nan nan nan nan nan nan nan nan nan nan nan nan nan nan nan nan nan nan
Wind_Speed
3 3 3 4 3 3 3 4 4 4 4 4 4 4 4 4 4 3 4 3 2 2 2 2 2 2 4 7 9 11 12 13 13 13 14 14 14 14 14 14 15 15 15 15 15 15 15 15 15 15 15 15 15 15 15 15 15 15 15 15 15 16 16 16 16 16 16 16 16 16 17 17 17 17 17 17 17 17 17 18 18 18 18 19 19 19
3 2 2 3 3 3 2 4 5 5 5 4 4 4 3 3 3 2 2 2 2 2 2 2 2 2 2 4 8 10 12 13 13 13 14 14 14 14 14 15 15 15 15 15 15 15 15 15 15 15 15 15 15 15 14 14 14 14 15 15 15 15 16 16 16 16 16 16 16 16 16 16 17 17 17 17 17 17 18 18 18 18 19 19 19 19
2 2 2 2 2 2 2 4 4 5 5 5 4 4 3 3 2 2 1 1 1 1 1 1 2 2 2 3 6 10 11 12 13 13 14 14 14 15 15 15 15 15 15 15 15 15 15 15 14 14 14 14 14 14 14 14 14 14 15 15 15 15 16 16 16 16 16 16 16 16 16 16 17 17 17 17 17 18 18 18 18 18 19 19 19 19
2 2 2 2 2 2 3 3 4 4 4 4 4 3 3 2 2 2 2 1 1 1 1 1 2 2 2 2 5 8 11 12 13 14 14 14 15 15 15 15 15 15 15 15 14 14 14 14 14 14 14 14 14 14 14 14 14 15 15 15 15 15 16 16 16 16 16 16 16 16 16 16 17 17 17 17 18 18 18 18 19 19 19 19 20 20
2 3 3 3 3 3 3 3 4 4 4 3 3 2 2 2 2 2 1 1 1 1 1 2 2 2 2 2 4 7 10 12 13 14 14 15 15 15 15 15 15 14 14 14 14 14 14 14 14 14 14 14 14 14 14 14 15 15 15 15 15 15 15 15 16 16 16 16 16 16 16 16 17 17 17 17 18 18 18 19 19 19 19 20 20 20
3 3 3 3 3 3 3 3 3 3 2 2 2 2 2 1 1 1 1 1 1 1 1 1 1 2 2 2 5 7 10 12 13 13 14 14 15 15 15 14 14 14 13 13 13 13 14 14 14 14 14 14 14 15 15 15 15 15 15 15 15 15 15 15 15 15 16 16 16 16 16 16 16 17 17 17 18 18 18 19 19 19 19 20 20 20
2 2 3 2 2 2 2 2 2 2 2 1 1 1 1 1 1 1 1 1 1 1 1 1 2 2 2 3 5 7 8 10 11 12 13 14 14 14 14 14 14 13 13 13 13 14 14 14 14 14 15 15 15 15 15 15 15 15 15 15 15 15 15 15 15 15 15 15 15 16 16 16 16 16 17 17 17 18 18 18 19 19 20 20 20 21
2 1 1 2 2 1 1 1 1 1 1 1 1 1 0 1 1 1 1 1 1 1 1 2 2 2 2 3 3 4 5 6 7 8 10 11 12 12 13 13 13 13 13 14 14 14 14 14 14 15 15 15 15 15 15 15 15 15 15 15 14 14 15 15 15 15 15 15 15 15 15 16 16 16 16 17 17 17 18 18 19 19 20 20 21 21
1 1 1 1 1 1 1 1 1 1 1 1 1 1 0 1 1 1 1 1 1 1 1 2 2 2 2 2 2 2 3 4 5 5 6 7 7 8 10 11 12 13 13 13 14 14 14 14 14 14 15 15 15 15 15 15 15 15 14 14 14 14 14 14 14 14 14 14 15 15 15 15 15 16 16 17 17 17 18 18 19 19 20 20 21 21
1 1 0 0 1 1 1 1 1 1 1 1 1 1 1 1 1 1 2 2 2 1 1 1 1 2 2 1 1 2 3 5 6 8 9 9 9 10 10 10 10 10 12 13 13 14 14 14 14 15 15 15 15 15 15 15 14 14 14 14 14 14 14 14 14 14 14 14 14 14 15 15 15 16 16 17 17 18 18 19 19 20 20 21 21 22
1 1 1 1 1 1 1 1 1 1 1 1 1 1 1 2 2 2 2 2 2 1 1 1 1 1 2 2 2 2 2 3 5 7 9 10 12 12 11 10 10 10 11 12 12 13 14 14 15 15 15 15 15 15 15 14 14 14 14 14 13 13 13 13 13 13 14 14 14 14 15 15 16 16 17 17 18 18 18 19 19 20 20 21 21 22
1 1 1 1 1 1 1 1 1 1 1 1 1 1 2 2 2 2 2 2 1 1 1 1 1 1 1 1 2 2 2 2 3 4 5 6 7 7 7 7 7 8 8 9 10 11 13 14 14 15 14 14 15 15 14 14 14 14 14 14 13 13 13 13 13 13 14 14 15 15 15 16 16 17 17 18 18 19 19 19 20 20 21 21 22 22
1 1 1 1 1 1 1 1 1 1 1 2 2 2 2 2 1 1 1 1 1 1 1 1 1 1 1 1 1 2 2 3 3 3 3 3 3 3 2 2 3 3 4 5 5 6 9 11 12 13 13 13 14 14 14 14 14 14 14 14 13 13 13 13 14 14 14 15 15 16 16 17 17 18 18 18 19 19 19 20 20 20 21 21 22 22
1 1 1 1 1 1 1 1 2 2 2 2 2 2 2 1 1 1 1 1 1 1 1 1 1 2 1 1 1 2 2 2 3 3 3 2 2 1 1 2 3 3 3 3 3 4 7 8 8 9 11 11 12 13 13 14 14 14 14 14 14 14 14 14 14 15 15 16 16 17 17 17 18 18 19 19 19 19 20 20 20 21 21 21 22 22
2 2 2 1 1 1 2 2 2 2 2 2 1 1 1 1 1 1 1 0 1 1 1 2 2 2 2 2 2 1 1 2 2 3 3 3 2 2 1 2 3 4 3 3 4 5 6 6 5 5 6 8 9 10 12 13 14 14 14 15 15 15 15 15 16 16 16 17 17 17 18 18 18 19 19 19 19 20 20 20 21 21 21 21 22 22
1 1 2 1 1 1 1 1 1 1 1 1 1 1 1 1 1 1 1 0 1 1 2 2 2 2 2 2 2 2 1 2 2 3 3 3 3 2 2 3 4 4 4 4 4 4 4 4 4 5 5 8 11 13 15 14 15 15 15 15 16 16 16 16 16 17 17 17 18 18 18 18 19 19 19 19 20 20 20 20 20 21 21 21 21 22
1 1 1 1 1 1 1 0 0 1 1 0 1 1 1 1 1 1 1 1 1 1 1 1 2 2 2 2 2 2 1 2 3 3 4 4 3 3 2 3 4 4 4 4 4 4 4 4 4 4 5 8 12 14 15 15 16 16 16 16 16 16 17 17 17 17 18 18 18 18 18 19 19 19 19 19 20 20 20 20 20 21 21 21 21 21
1 1 1 1 0 1 1 0 0 0 0 1 1 1 1 1 1 1 1 1 1 1 1 1 1 2 2 2 2 2 2 2 3 4 4 5 4 3 2 3 3 4 4 4 4 4 4 4 4 5 6 11 14 15 16 16 16 16 17 17 17 17 17 17 17 18 18 18 18 19 19 19 19 19 19 19 20 20 20 20 20 20 21 21 21 21
1 1 1 1 1 1 1 0 0 0 1 1 1 1 2 2 2 2 1 1 0 0 1 1 2 2 2 3 3 3 2 2 3 4 5 5 5 3 2 3 3 4 4 4 4 4 4 4 6 8 11 14 15 16 16 17 17 17 17 17 17 17 18 18 18 18 18 18 19 19 19 19 19 19 19 19 20 20 20 20 20 20 21 21 21 21
0 0 1 1 1 1 0 0 1 1 1 1 1 1 1 1 1 1 1 0 1 1 1 2 2 3 3 3 3 2 2 2 3 3 4 5 5 4 3 3 3 4 4 4 4 4 4 4 5 7 11 13 14 16 17 17 17 17 18 18 18 18 18 18 18 18 19 19 19 19 19 19 19 19 19 19 19 20 20 20 20 20 21 21 21 21
0 1 1 0 1 1 1 1 1 1 2 2 2 2 1 1 1 1 1 1 1 1 1 2 2 3 3 3 3 3 2 3 3 3 3 4 4 4 2 2 3 4 5 4 4 3 4 4 4 5 7 11 14 16 17 17 18 18 18 19 19 19 19 19 19 19 19 19 19 19 19 19 19 19 19 19 19 20 20 20 20 20 20 21 21 21
0 1 1 1 1 1 1 1 1 2 2 2 2 2 1 0 0 1 1 1 1 2 2 3 3 3 3 4 4 3 3 2 3 3 3 4 4 4 2 2 3 3 4 4 4 3 3 3 4 5 8 12 15 17 18 18 18 19 19 19 19 19 19 19 19 19 19 19 19 19 19 19 19 19 19 19 19 20 20 20 20 20 20 21 21 21
1 1 1 1 1 1 1 1 1 1 2 3 2 2 2 2 1 1 1 1 2 2 3 3 3 3 3 4 4 4 3 3 3 3 3 4 4 4 2 2 2 3 4 4 4 4 4 4 4 5 8 13 15 17 18 18 19 19 19 20 20 19 19 19 19 19 19 19 19 19 19 19 19 19 19 19 19 20 20 20 20 20 20 20 20 21
2 1 1 1 1 1 1 1 1 1 2 2 2 2 3 2 2 2 2 2 2 2 3 3 4 4 4 4 4 4 3 3 2 2 2 3 4 4 2 2 3 4 5 4 4 4 5 5 4 5 6 11 14 16 18 18 19 19 19 19 19 19 19 19 19 19 19 19 19 19 20 20 20 20 19 20 19 20 20 20 20 20 20 20 20 20
2 2 2 1 1 1 1 2 2 2 2 2 2 2 2 2 2 2 2 2 2 3 3 4 4 4 3 3 3 3 3 2 1 1 1 2 3 3 3 2 3 4 5 5 4 4 5 5 5 5 5 8 11 15 17 18 19 19 19 19 19 19 19 19 19 19 20 20 20 20 20 20 20 20 20 19 19 19 19 20 20 20 20 20 20 20
3 3 4 4 5 6 6 7 6 6 5 3 2 2 2 2 2 2 2 2 2 3 3 4 4 4 3 3 3 2 2 1 1 1 1 2 3 3 3 2 2 4 5 5 4 4 5 6 6 5 4 6 9 13 15 17 18 18 18 18 18 19 19 19 20 20 20 21 21 20 20 20 20 20 20 19 19 19 19 19 20 20 20 20 20 19
5 6 7 8 8 8 9 9 9 9 9 8 6 4 3 2 1 2 3 2 2 2 3 4 4 4 3 3 2 2 2 2 1 1 1 2 3 4 3 3 3 3 5 5 4 4 6 6 6 6 5 5 6 9 13 15 16 17 18 18 19 19 20 20 21 21 21 21 21 20 20 20 20 20 20 20 20 20 20 20 20 20 19 18 17 15
6 6 7 7 7 8 8 8 9 9 10 10 10 9 5 2 2 3 3 2 2 2 3 4 4 4 3 3 3 2 2 2 2 2 1 2 3 3 3 3 3 3 4 4 5 5 6 6 6 5 5 5 5 6 9 12 14 16 17 18 19 20 20 20 20 21 21 20 20 20 20 20 20 20 20 20 20 20 20 20 20 19 18 15 11 8
7 7 7 7 7 7 7 7 7 8 9 10 10 9 6 3 2 3 3 2 2 2 3 4 4 4 4 4 3 3 2 2 2 2 1 2 2 3 2 2 2 2 3 4 4 4 4 4 4 3 4 4 4 4 5 9 11 12 14 16 18 19 19 20 20 20 20 20 20 20 20 20 20 20 20 20 20 20 20 20 20 17 13 10 8 6
6 6 6 6 6 6 5 5 5 6 8 9 9 8 5 2 2 2 2 2 2 3 4 4 5 4 4 4 4 3 3 3 2 1 0 0 2 2 2 2 2 2 2 3 4 4 4 3 2 2 2 4 4 4 4 6 7 8 9 12 14 15 17 18 19 19 20 20 20 20 20 20 20 20 20 20 20 20 20 21 19 15 9 7 6 6
3 3 3 3 4 3 3 2 2 3 5 6 6 5 4 2 1 1 1 2 2 3 3 4 4 4 4 4 3 3 2 2 2 1 2 1 2 2 2 3 3 3 2 2 3 5 5 4 3 2 2 3 4 5 5 5 6 6 6 7 8 10 14 16 17 18 18 19 19 19 20 20 20 20 21 21 21 21 21 21 19 14 9 7 6 6
3 3 3 3 2 2 2 2 2 2 2 2 2 2 2 2 1 1 1 2 2 2 3 4 4 4 4 4 4 4 3 2 2 3 3 2 2 2 2 3 3 3 2 2 3 4 5 5 4 4 3 4 5 5 5 6 5 5 6 6 6 8 12 14 15 15 15 16 17 18 19 20 20 21 21 21 21 21 21 21 19 15 9 7 6 7
3 3 2 2 2 2 2 2 1 1 1 1 1 1 1 1 2 2 2 2 2 2 2 3 4 4 4 4 5 5 4 3 4 4 5 3 2 2 2 3 3 3 3 3 3 3 4 5 6 6 5 5 5 5 5 5 5 5 5 5 5 7 9 10 11 11 11 13 14 15 17 18 19 20 20 21 21 21 21 21 19 17 12 8 7 7
3 3 3 2 2 2 2 2 1 1 1 0 0 0 0 1 1 2 2 2 2 2 2 3 3 4 4 4 5 5 5 4 4 5 5 3 3 3 3 3 4 4 4 4 4 4 4 5 6 6 6 6 5 4 4 5 5 5 4 5 5 5 7 7 7 8 9 9 9 10 11 13 14 16 17 18 19 19 20 20 20 19 17 12 10 8
3 3 3 2 2 2 2 2 2 1 1 1 1 1 0 1 1 1 1 2 2 2 2 3 3 3 4 4 5 5 5 4 4 5 5 4 3 3 4 4 4 4 4 4 4 4 4 6 7 7 7 7 6 5 4 4 4 4 4 5 5 5 6 6 6 7 8 8 8 8 8 8 9 10 12 14 16 18 19 20 21 21 21 18 15 12
2 2 2 2 2 2 2 2 2 2 2 1 1 1 1 1 1 1 2 2 3 3 3 3 3 3 4 4 5 6 6 5 5 5 6 5 4 4 4 4 4 4 4 5 5 5 5 6 7 8 9 8 7 6 5 4 4 4 5 5 6 6 6 6 6 6 6 7 7 7 7 6 7 8 9 13 16 18 20 20 21 21 21 21 19 17
2 2 2 2 2 2 2 2 1 1 1 1 1 1 2 2 2 2 3 3 3 3 4 4 5 5 6 5 6 6 6 6 6 6 7 5 4 4 4 5 5 5 5 5 6 6 6 7 8 8 8 7 7 6 6 5 5 5 6 6 6 6 6 6 6 6 6 7 7 7 7 7 7 8 9 13 15 17 18 19 20 20 21 21 21 20
1 1 2 2 2 2 2 1 1 1 1 2 2 2 3 3 3 3 3 3 4 4 4 4 5 6 8 9 9 8 8 8 8 8 8 6 5 5 6 6 6 6 6 6 6 6 6 7 8 8 7 7 7 8 8 7 7 7 7 7 7 7 7 6 6 5 5 6 7 8 9 8 8 8 8 9 10 10 10 11 12 14 17 17 18 19
1 2 2 2 2 2 2 1 1 1 2 2 2 3 3 3 4 4 4 4 4 4 4 4 5 5 7 8 9 10 10 10 9 8 8 7 6 6 7 7 7 7 6 6 6 6 7 7 7 7 7 7 8 8 8 8 8 8 9 8 8 7 6 6 5 5 5 6 7 9 9 8 7 7 7 7 7 6 7 7 8 9 10 9 10 14
2 2 2 3 3 2 1 2 2 2 2 3 3 3 3 3 4 4 4 4 4 4 4 5 5 5 6 7 8 9 9 8 8 8 7 6 6 6 7 7 7 7 7 6 6 7 7 7 8 8 8 8 8 8 8 8 8 9 10 9 7 7 7 6 6 6 5 6 6 7 7 7 7 7 7 7 7 6 6 6 7 7 8 7 6 7
3 2 2 2 2 2 2 2 2 3 3 3 3 3 3 3 3 3 3 3 3 3 4 4 4 4 5 5 6 7 8 7 8 8 6 7 7 7 7 7 7 7 7 7 7 7 7 8 8 9 9 9 9 10 10 10 10 11 11 9 9 9 9 9 8 7 6 6 6 6 7 8 8 8 8 8 8 7 7 7 7 8 8 7 6 6
3 3 2 2 2 2 2 3 3 4 4 3 3 2 2 2 2 2 3 3 3 3 3 3 3 4 5 5 5 6 6 6 7 8 8 8 9 8 8 8 7 7 7 7 8 8 8 8 9 9 9 8 9 9 10 10 10 10 10 10 10 11 11 10 7 5 5 6 6 7 8 8 8 8 9 9 8 8 8 8 9 10 10 8 7 6
3 3 2 2 1 2 3 3 4 3 3 3 2 2 2 2 2 3 3 3 3 3 3 3 3 4 5 5 5 4 5 5 6 7 8 8 8 8 8 8 8 7 7 7 8 8 8 9 9 9 9 8 9 9 11 11 10 10 9 9 10 9 8 7 6 5 5 7 7 7 8 8 8 8 8 9 8 8 8 9 11 12 11 9 8 7
3 2 1 1 2 2 3 3 3 3 3 2 3 3 3 3 3 4 4 3 4 4 4 3 3 4 5 5 5 5 5 4 5 6 6 7 7 7 7 8 8 8 8 7 8 8 8 9 9 9 8 8 9 9 10 10 10 10 9 9 9 9 8 8 8 8 8 8 8 7 8 8 8 8 8 8 8 8 7 8 8 9 9 9 9 8
2 1 1 2 2 3 3 3 3 3 2 3 3 3 3 3 4 4 4 3 4 4 3 3 3 4 5 5 5 5 5 4 4 4 5 7 8 9 8 7 7 7 8 7 8 8 8 8 9 8 8 8 9 10 10 10 11 11 11 10 10 10 10 10 10 10 10 9 9 8 8 8 8 9 9 9 8 8 7 8 8 8 8 8 8 8
1 1 2 2 2 3 3 3 3 3 3 3 3 3 3 3 3 4 4 4 4 4 4 3 3 4 5 5 5 5 5 5 4 4 4 4 5 6 6 6 7 7 7 7 8 8 8 9 9 9 9 9 9 10 10 10 10 10 10 10 9 9 10 10 9 9 9 9 10 10 9 8 8 8 9 9 9 8 8 8 8 8 8 7 8 8
2 2 2 2 2 3 3 3 3 3 3 3 3 3 3 3 3 3 4 4 4 3 3 3 3 4 5 5 5 5 6 6 6 5 4 4 4 4 5 5 6 7 7 7 8 9 9 9 9 9 9 9 10 10 10 10 10 10 10 10 9 9 9 9 9 8 9 9 10 9 8 8 8 9 10 10 9 9 8 7 7 8 7 7 7 8
2 2 3 3 3 3 3 3 3 3 3 4 4 4 3 3 4 4 3 3 3 3 4 4 4 5 6 6 6 6 6 7 6 6 5 5 4 4 4 4 5 6 7 8 9 9 10 10 10 10 10 10 10 11 11 10 10 10 10 9 9 9 10 10 9 8 9 9 10 9 8 7 8 9 9 9 9 9 8 8 8 7 7 7 7 8
2 3 3 3 3 3 3 3 3 3 4 4 4 4 3 4 5 5 4 3 3 4 4 5 5 6 6 6 6 6 7 7 7 6 5 5 5 4 4 4 4 5 6 6 7 8 9 10 11 11 11 11 11 12 12 11 10 10 9 9 9 9 10 10 9 9 9 9 9 9 7 7 7 8 8 9 10 10 10 9 9 8 7 7 7 8
3 3 3 3 3 4 4 4 4 4 4 5 5 4 3 3 3 3 3 3 4 4 4 5 5 6 6 6 6 6 7 6 6 6 5 5 5 4 4 4 5 5 6 5 5 5 6 6 8 10 12 13 13 12 11 11 10 10 9 9 9 9 9 9 9 8 8 9 9 8 7 7 7 7 7 9 10 11 11 10 9 8 7 7 7 8
3 3 4 4 4 4 4 4 4 5 5 5 5 5 4 3 3 3 3 3 4 4 4 5 5 6 7 7 7 7 7 7 6 6 6 5 4 5 5 5 5 5 6 6 5 5 5 5 5 6 8 12 14 13 10 9 9 8 8 8 8 8 8 8 8 8 8 8 8 7 7 7 7 7 7 8 9 11 11 10 10 9 7 7 7 8
Wind_Direction
111 121 131 142 147 156 173 180 185 194 209 217 224 231 241 242 239 233 227 224 221 222 232 239 249 264 279 286 288 289 291 291 292 292 292 291 291 291 291 291 291 291 290 290 289 289 288 288 288 288 288 287 287 287 286 287 287 287 287 286 286 286 285 286 286 288 289 290 292 292 293 294 294 295 296 296 296 296 294 293 291 290 289 289 288 288
109 118 131 144 148 154 172 188 195 203 210 215 218 223 227 232 236 236 235 229 227 228 233 244 255 265 274 283 287 289 290 291 291 292 292 292 293 292 292 292 291 290 290 289 289 289 289 288 288 287 287 287 286 286 286 285 285 285 285 285 285 285 285 286 287 288 289 290 290 291 292 292 293 293 294 293 293 292 290 289 288 288 287 287 287 286
120 127 139 149 154 162 179 197 205 211 212 214 215 214 213 217 224 234 244 246 247 245 242 247 259 267 268 278 285 288 290 291 292 292 293 293 293 293 292 291 290 290 290 289 289 289 289 288 288 287 286 286 286 285 285 285 285 284 284 284 284 284 285 285 286 287 288 288 289 289 289 290 290 290 290 289 288 288 287 286 286 286 286 285 285 285
135 142 152 157 170 183 195 204 211 216 218 217 214 209 201 205 217 228 235 241 250 257 259 258 261 265 268 276 285 289 290 291 292 292 293 293 293 293 292 291 291 290 290 290 289 289 289 288 288 287 286 286 285 285 285 285 285 285 285 285 285 285 285 285 286 286 286 287 286 286 287 287 287 286 286 286 286 285 285 285 284 284 284 284 283 283
150 155 159 164 176 190 201 207 210 213 216 214 209 204 199 204 215 228 236 238 248 255 262 262 261 263 268 274 284 287 288 290 292 294 295 295 295 295 294 293 293 292 292 291 291 290 289 289 288 287 287 287 286 286 286 286 286 285 285 285 285 285 285 286 286 286 286 286 285 285 285 285 285 285 285 285 284 284 284 283 283 283 282 282 282 282
160 164 164 168 174 183 193 199 201 202 201 202 202 201 200 205 212 224 239 246 251 253 257 256 260 261 265 269 279 284 287 291 294 296 298 298 298 297 297 296 295 295 294 294 292 292 291 290 289 288 288 288 287 287 286 286 286 285 285 285 285 285 285 286 286 286 286 286 285 285 285 285 285 284 284 284 283 283 282 282 282 282 281 281 281 280
159 167 166 166 168 171 177 184 184 179 174 183 196 207 215 213 218 224 235 240 243 252 259 265 264 262 261 263 273 280 287 293 297 298 298 298 298 297 297 297 296 296 295 294 293 292 291 291 290 289 289 288 288 287 286 286 286 286 285 286 286 286 286 287 287 286 286 286 286 285 285 284 283 283 283 282 282 282 281 281 281 281 281 281 280 280
145 160 157 154 154 156 165 179 179 173 162 162 170 198 257 269 269 261 263 262 258 255 264 266 263 260 255 255 265 276 286 291 293 293 294 293 292 292 292 293 293 293 293 292 292 291 291 291 291 291 290 290 290 290 289 289 289 289 288 288 288 288 288 288 288 287 286 286 285 284 283 283 282 282 281 281 281 281 281 281 280 280 280 280 280 279
130 141 137 141 145 153 169 211 220 187 150 145 151 166 214 285 301 309 315 301 283 259 247 255 260 262 259 254 260 272 280 284 284 284 287 284 282 283 285 287 288 290 290 290 291 292 293 294 295 296 296 296 296 296 296 295 295 294 293 292 292 291 290 289 288 287 286 286 285 284 283 282 282 281 281 281 281 281 280 280 280 280 280 280 279 279
121 129 151 177 166 156 164 208 241 234 135 131 143 157 176 224 261 279 285 278 270 258 239 245 261 275 280 274 270 273 278 285 290 292 294 292 290 289 287 288 289 290 292 293 295 296 298 300 301 302 303 303 303 303 302 301 300 299 297 295 293 291 290 289 288 287 286 285 285 284 283 283 283 282 282 282 281 281 281 280 280 280 280 280 280 280
139 151 178 223 216 174 156 184 204 207 129 121 138 188 207 218 227 238 249 256 264 277 281 265 267 276 287 287 282 278 281 287 291 294 295 293 293 293 292 293 295 296 297 299 301 303 304 304 305 305 305 305 305 305 304 303 302 299 297 294 292 290 289 288 287 286 285 285 285 284 284 284 283 283 283 282 282 282 282 281 281 281 281 281 281 280
163 171 184 196 197 178 159 183 195 183 148 166 214 243 242 226 212 205 212 231 254 274 281 270 262 257 263 278 288 293 294 291 289 288 288 288 288 288 291 295 299 302 303 305 306 306 306 305 304 304 304 304 304 304 303 302 300 298 295 293 291 289 288 287 286 286 285 285 285 284 284 284 283 283 283 282 282 282 282 281 281 281 280 280 280 279
179 175 169 170 168 168 170 197 211 211 199 201 209 219 226 221 192 169 173 212 239 251 257 272 277 274 262 270 285 294 297 293 287 285 283 282 282 283 291 300 303 306 307 308 307 305 304 303 303 302 302 302 301 301 300 298 296 294 293 291 289 288 287 287 286 286 286 286 285 285 284 283 283 282 282 281 281 281 280 279 279 279 278 278 278 278
193 175 154 155 162 176 189 208 218 220 213 204 198 195 196 188 156 133 140 232 253 259 274 311 312 309 300 294 284 279 286 290 290 289 288 284 281 285 309 310 306 303 305 305 301 298 298 300 300 299 299 298 297 296 293 292 291 290 289 289 288 288 288 287 287 287 287 286 285 284 284 282 282 281 280 280 279 279 278 278 277 277 277 277 277 277
185 166 152 161 177 192 201 206 209 211 210 200 187 175 160 137 113 108 114 275 297 324 5 347 330 315 302 288 279 275 285 294 297 297 298 294 292 300 326 318 309 303 302 300 295 292 293 294 290 287 287 286 285 285 285 286 287 288 288 288 288 288 288 288 288 287 286 285 285 284 283 282 281 280 280 279 279 278 278 278 278 278 277 278 277 278
164 151 153 173 192 207 210 197 190 197 214 205 172 133 106 91 82 91 97 32 350 1 11 349 331 317 300 288 285 291 305 309 305 303 304 301 301 310 333 320 308 300 296 293 291 288 289 285 279 275 274 278 282 285 287 289 289 290 290 290 290 290 289 288 287 287 286 285 285 284 284 283 282 281 281 280 280 279 279 279 279 278 278 278 278 278
133 135 149 168 199 231 253 221 185 188 205 195 114 102 105 107 97 84 77 53 33 19 8 342 323 314 305 305 302 304 320 320 312 305 304 300 299 304 318 307 297 293 292 289 286 284 284 280 277 274 271 278 283 288 290 291 292 292 292 291 291 290 289 289 289 288 288 287 287 286 285 285 284 283 282 281 281 280 280 279 279 279 278 278 278 277
113 122 127 140 193 253 278 288 268 239 123 65 55 58 62 69 72 73 71 63 51 19 335 311 296 292 298 300 296 294 312 323 315 307 304 299 298 297 300 290 286 286 288 287 284 281 280 277 274 274 277 285 288 291 294 294 294 294 294 293 293 293 292 292 292 291 291 290 289 288 287 286 285 284 283 282 281 281 280 279 279 278 278 277 277 277
110 118 118 147 200 235 252 256 252 67 68 66 61 50 39 35 41 48 55 69 112 210 247 270 273 275 282 284 284 286 306 322 317 309 303 298 296 295 294 287 285 284 285 285 283 281 278 275 275 278 282 288 291 294 295 296 296 296 297 297 297 296 296 295 295 294 293 292 291 289 288 287 286 285 283 283 282 281 280 280 279 278 278 277 276 276
84 126 167 182 191 198 217 35 56 67 83 88 84 73 50 30 25 24 2 291 230 224 226 250 263 272 276 279 282 292 327 340 329 310 297 293 292 292 291 287 285 285 285 283 282 279 276 272 275 280 285 289 292 295 297 298 299 299 299 299 299 299 298 297 296 295 294 292 291 290 288 287 286 285 284 283 282 281 280 280 279 279 278 278 278 277
26 286 245 165 115 94 67 49 53 64 85 87 83 74 65 44 16 339 282 273 266 262 257 264 270 276 285 290 295 307 338 339 323 304 293 289 288 287 284 280 280 283 284 282 279 276 274 274 274 278 283 290 294 297 299 300 301 301 301 301 301 300 299 298 297 295 294 293 291 290 288 287 286 285 284 283 282 282 281 281 281 280 280 280 280 279
50 283 279 59 80 90 96 94 79 77 92 93 93 94 104 103 263 273 269 275 278 279 279 280 285 291 297 298 300 304 318 307 292 285 288 287 286 285 279 274 276 282 285 286 286 286 282 282 281 283 288 294 297 299 301 301 302 302 302 302 301 300 299 298 297 295 294 293 292 291 290 289 288 287 287 286 285 284 284 283 283 283 282 282 282 281
42 343 331 46 84 104 122 131 123 107 103 111 128 149 165 167 188 221 244 261 273 280 285 291 297 298 296 293 291 288 282 264 258 261 273 280 284 285 285 284 287 288 287 292 296 298 295 290 286 287 290 296 298 300 301 302 302 302 302 302 301 300 299 298 297 297 296 296 295 295 294 293 292 291 290 289 288 287 287 286 285 284 284 283 282 282
22 7 357 14 71 121 133 144 150 141 126 135 151 168 176 184 203 227 245 264 279 289 297 301 299 296 290 285 281 276 266 249 238 237 254 272 279 286 293 302 300 295 291 293 296 299 297 292 287 285 288 295 298 300 301 302 302 302 302 301 300 300 300 300 300 301 301 300 300 299 298 297 295 294 293 291 290 289 288 287 286 285 284 283 282 281
4 348 331 314 287 257 237 240 236 222 186 171 173 182 192 211 235 258 274 288 297 302 304 299 294 290 287 284 281 277 270 250 218 203 238 270 280 286 294 303 301 297 294 295 297 297 295 293 291 289 289 294 298 300 301 301 301 301 301 301 302 302 303 304 304 304 304 303 301 300 299 297 296 295 294 292 291 290 289 288 287 286 285 284 283 281
336 326 315 306 300 294 290 286 281 274 262 241 214 194 196 209 236 264 284 290 294 295 294 289 285 283 283 285 285 284 285 288 260 203 226 274 287 291 296 301 299 294 293 295 296 296 295 293 293 293 293 294 297 299 300 300 301 302 303 304 305 306 307 306 306 305 304 302 301 300 299 297 297 296 295 294 293 292 291 290 289 288 287 286 284 283
332 325 318 313 310 306 303 300 296 291 286 281 273 259 237 224 237 260 268 270 275 280 281 282 284 286 287 286 283 283 289 302 299 277 249 285 289 291 293 297 294 292 292 292 293 293 293 293 294 295 296 293 294 296 298 301 304 306 307 307 308 308 307 306 304 303 302 301 300 299 299 298 298 297 297 296 296 295 294 293 292 291 290 289 286 284
333 325 320 314 309 305 302 299 298 296 294 291 287 283 276 265 259 263 267 271 277 279 277 279 284 288 291 288 285 284 288 291 286 278 274 278 278 278 282 287 286 286 291 294 293 292 290 288 288 289 289 289 290 294 300 307 309 310 310 308 307 306 304 303 302 301 300 300 300 300 299 299 299 299 299 299 298 298 297 297 296 295 293 292 289 285
335 327 317 310 304 300 296 295 294 293 292 290 288 286 284 277 263 263 270 280 285 282 277 277 280 284 289 290 291 290 287 277 271 267 265 262 265 268 276 287 293 299 305 304 301 295 284 277 274 276 281 290 297 305 310 315 314 310 307 305 304 302 302 301 301 301 301 300 300 301 301 301 301 301 301 301 301 300 300 300 299 298 296 293 289 285
336 330 322 314 308 304 299 295 288 286 287 289 290 290 292 290 273 265 274 282 280 275 274 276 278 282 288 294 296 293 283 270 264 263 76 288 275 278 297 309 312 315 324 316 309 302 292 279 266 264 280 302 310 314 313 312 308 303 301 300 300 300 300 301 301 301 302 302 302 302 302 302 302 302 302 302 302 302 301 301 301 300 297 293 288 283
316 314 311 308 306 306 304 292 281 281 287 293 297 301 305 307 286 264 270 266 262 263 268 272 275 278 282 288 290 288 282 272 281 329 48 9 301 290 308 310 307 306 313 316 310 306 303 298 290 285 302 312 311 308 304 301 299 297 296 297 298 299 300 301 302 302 303 303 303 303 303 303 303 303 303 302 302 301 301 301 300 299 295 291 287 283
287 287 283 284 288 293 296 289 284 284 291 300 305 306 302 289 264 243 236 236 242 250 261 267 271 274 274 273 273 273 275 277 302 331 356 337 304 290 297 297 296 296 299 299 296 296 299 301 304 308 311 307 303 299 297 296 296 296 296 297 296 297 299 301 302 303 303 303 304 304 303 303 303 302 301 301 300 299 299 299 298 297 293 289 284 280
281 282 283 287 290 294 293 291 290 290 287 283 286 285 290 281 270 259 246 239 240 248 258 268 272 275 275 271 269 269 272 278 299 312 319 312 297 290 293 294 297 299 303 297 287 282 283 292 300 305 305 301 298 296 296 295 294 293 292 293 293 294 298 300 301 302 302 302 302 302 302 301 300 299 299 298 297 297 297 296 295 294 291 287 282 279
293 295 297 301 304 305 305 309 312 309 300 299 290 290 306 302 290 279 273 266 263 261 262 268 273 275 278 276 273 273 273 278 293 305 312 307 299 295 297 298 300 303 305 299 292 286 280 285 293 299 301 300 297 295 295 293 292 289 285 285 287 291 295 299 299 299 298 299 298 298 297 297 296 295 295 294 294 294 293 293 292 291 290 288 285 283
306 307 306 311 315 319 322 329 335 338 338 331 331 333 351 341 324 311 303 296 286 278 270 265 266 268 272 275 276 276 277 281 299 311 313 309 304 300 300 297 299 301 301 297 295 293 288 289 292 295 299 300 299 296 291 287 286 285 282 283 284 288 291 294 295 295 295 294 292 290 290 289 289 289 289 289 290 290 291 291 291 291 290 290 289 287
310 308 307 314 323 326 327 331 336 340 338 327 324 336 354 349 336 327 320 309 298 288 280 273 268 266 266 269 272 275 279 285 295 302 301 300 299 297 293 291 293 295 295 292 291 291 290 291 291 292 294 296 297 298 295 292 290 290 291 290 288 288 288 288 287 288 289 289 288 287 286 284 283 283 283 286 288 289 290 290 290 290 290 289 288 287
303 303 309 319 328 329 327 326 328 331 323 320 328 337 340 331 324 318 310 303 295 289 286 282 277 273 270 268 269 271 277 282 285 286 284 284 284 283 281 282 284 285 284 286 287 288 289 290 291 291 290 289 292 297 303 305 304 301 297 295 293 290 287 285 282 280 281 282 283 284 284 285 284 284 285 287 289 289 290 290 289 288 287 286 285 285
298 309 320 327 329 324 318 315 312 308 312 323 327 327 324 317 310 303 297 289 283 278 278 276 275 273 271 271 270 271 274 276 276 275 273 271 269 269 271 274 275 274 272 275 279 282 284 285 288 290 290 287 288 291 297 302 304 303 299 296 292 288 285 283 280 276 276 280 283 285 286 287 287 287 287 287 287 287 286 284 282 282 282 282 282 281
309 318 321 316 311 305 299 297 298 304 319 325 323 319 312 303 296 289 283 278 273 269 266 266 267 268 267 267 268 270 271 271 269 266 263 259 258 260 263 268 270 270 269 267 268 269 271 274 278 282 287 289 290 291 292 294 296 297 299 298 295 289 283 283 282 281 281 283 285 287 287 287 286 285 283 282 280 279 278 277 276 276 277 278 279 279
309 310 306 301 297 295 297 309 316 322 329 324 316 307 299 291 285 279 272 271 270 268 265 262 263 264 263 264 265 266 268 266 264 261 257 252 250 251 256 261 266 268 268 265 262 261 262 265 269 272 276 281 286 289 291 290 291 294 299 300 299 296 295 294 291 288 284 282 283 284 285 285 282 280 279 278 277 276 276 276 277 277 277 277 278 278
301 297 293 293 297 304 316 329 335 335 329 317 305 294 285 279 277 276 276 275 274 273 271 268 268 267 266 264 263 263 263 261 259 256 253 247 244 245 249 254 259 263 266 264 262 259 258 261 266 269 271 274 279 282 283 285 287 291 293 292 291 292 295 294 292 289 286 282 279 280 283 285 285 283 282 281 278 275 274 275 276 277 276 273 271 271
300 298 297 301 314 331 340 336 330 321 309 298 287 279 276 279 281 282 284 282 279 276 274 274 275 276 275 271 266 262 258 258 256 253 251 246 242 241 244 248 253 257 261 263 262 261 258 260 263 266 269 272 276 279 281 282 284 284 284 284 288 292 293 290 288 286 286 285 284 284 285 285 286 284 283 281 278 275 272 270 270 271 271 268 265 264
298 295 297 310 326 333 329 317 307 296 286 281 280 281 284 287 287 284 283 280 278 276 274 272 272 274 277 277 275 269 261 255 252 251 250 246 242 240 241 245 248 251 255 260 263 263 261 260 261 263 266 269 271 274 278 282 283 282 279 281 286 291 293 291 292 292 290 288 287 286 285 283 282 281 281 279 278 275 272 269 268 268 267 268 267 264
273 276 297 323 330 326 313 297 284 276 275 280 284 286 284 279 276 275 276 273 272 272 272 270 272 273 276 278 280 279 277 266 257 253 253 251 246 242 244 245 247 248 249 254 260 266 269 266 264 264 265 267 269 271 274 278 280 281 279 279 278 278 278 285 292 296 293 289 286 283 281 280 281 281 281 280 278 276 273 270 267 265 264 263 263 263
260 281 327 324 316 305 289 279 275 276 279 280 279 276 273 267 265 264 263 264 266 267 267 268 272 277 278 279 281 284 285 282 276 268 263 260 259 257 254 252 252 253 252 252 257 262 268 271 272 271 270 268 267 267 270 274 277 279 278 278 276 273 272 277 283 286 286 286 285 282 279 279 281 282 282 280 278 276 273 270 267 265 262 259 257 258
313 333 329 313 299 285 279 279 279 279 277 274 272 268 266 261 259 258 259 260 263 264 264 263 266 272 277 283 286 289 291 290 286 281 274 266 261 258 257 256 256 258 259 259 259 260 262 266 271 275 276 272 268 265 265 269 273 276 278 278 277 276 276 276 276 276 278 280 281 280 278 279 279 280 279 279 277 275 272 269 267 264 262 258 255 255
343 329 311 298 286 279 276 276 275 275 273 272 270 268 266 263 260 260 259 260 262 267 271 268 268 271 275 281 286 289 291 290 290 287 283 278 270 262 260 258 258 258 260 262 262 262 261 262 264 268 272 273 273 271 268 268 270 273 276 278 278 277 276 275 274 274 274 275 276 278 280 280 279 277 276 277 277 277 276 273 269 266 264 261 258 257
319 306 293 283 277 273 272 270 270 270 272 272 272 271 269 269 271 274 274 273 277 282 284 281 278 275 276 278 279 281 283 286 287 288 287 285 281 274 268 266 265 263 263 263 263 263 262 261 259 259 262 266 269 272 273 271 270 270 273 275 276 275 275 275 275 274 274 272 272 273 274 275 275 276 278 280 280 280 281 280 277 273 270 267 264 262
297 286 279 275 273 271 271 270 270 271 272 275 275 275 273 276 282 286 288 287 286 284 282 278 277 276 276 276 277 278 279 281 283 285 286 286 285 283 279 276 274 273 271 267 265 264 263 260 256 252 250 254 260 265 270 270 269 269 270 271 272 272 273 273 274 274 273 272 271 270 268 269 271 274 279 282 283 284 284 284 282 279 275 271 268 265
281 275 272 272 270 270 270 271 272 273 274 277 278 279 278 278 278 279 278 277 275 271 269 269 271 273 275 277 278 278 278 279 280 281 281 283 284 285 283 282 282 282 281 278 274 271 270 265 257 249 243 243 247 254 263 267 268 268 268 267 267 268 270 272 273 273 273 275 275 274 273 274 275 277 280 282 284 285 285 284 283 280 276 273 269 267
279 275 271 270 268 267 268 270 272 273 275 276 278 280 282 281 278 275 271 270 269 269 267 266 267 269 273 276 277 277 277 278 279 280 280 281 282 282 282 283 285 287 289 289 287 285 284 282 276 264 249 242 240 243 252 260 265 269 269 266 265 266 269 272 274 275 276 278 281 282 283 283 282 281 281 282 284 285 285 284 283 281 278 276 273 271